This demonstration page uses our WeatherBlox Daily Observations layout. Learn more.

Left ArrowRight Arrow

34.16533, -84.80231

Hourly Observations for August 7, 2017

Temp ( °F °C ) Dew Point ( °F °C ) Humidity (%) Winds ( mph kmh ) Pressure ( in mb ) Visibility ( mi km ) Precip ( " mm )
12:53 am 00:53 Partly Cloudy 73 22.8 73 22.8 100 100 Calm 30.01 1016 10 16 0.00 0.00
1:53 am 01:53 Mostly Cloudy 73 22.8 73 22.8 100 100 Calm 30.00 1016 8 13 0.01 0.25
2:20 am 02:20 Cloudy with Light Rain 73 22.8 73 22.8 100 100 Calm 30.03 1017 6 10 0.05 1.27
2:25 am 02:25 Cloudy with Heavy Rain 73 22.8 73 22.8 100 100 Calm 30.03 1017 3 4 0.10 2.54
2:41 am 02:41 Cloudy with Rain 73 22.8 73 22.8 100 100 Calm 30.03 1017 4 6 0.19 4.83
2:53 am 02:53 Cloudy with Rain 73 22.8 73 22.8 100 100 S 3 6 29.98 1015 3 5 0.24 6.10
3:01 am 03:01 Cloudy with Light Rain 73 22.8 73 22.8 100 100 Calm 30.03 1017 6 10 0.01 0.25
3:53 am 03:53 Cloudy 73 22.8 73 22.8 100 100 S 7 11 29.98 1015 10 16 0.06 1.52
4:53 am 04:53 Cloudy 73 22.8 73 22.8 100 100 undefined N/A 29.97 1015 10 16 0.00 0.00
5:17 am 05:17 Cloudy 73 22.8 73 22.8 100 100 VRB 5 7 30.03 1017 10 16 0.00 0.03
5:37 am 05:37 Cloudy 73 22.8 73 22.8 100 100 Calm 30.03 1017 10 16 0.00 0.03
5:44 am 05:44 Cloudy 73 22.8 73 22.8 100 100 SSW 3 6 30.03 1017 10 16 0.01 0.25
5:53 am 05:53 Cloudy with Light Rain 73 22.8 73 22.8 100 100 S 5 7 29.98 1015 10 16 0.01 0.25
6:53 am 06:53 Cloudy 72 22.2 72 22.2 100 100 Calm 29.98 1015 10 16 0.00 0.03
7:53 am 07:53 Cloudy with Light Rain 73 22.8 73 22.8 100 100 VRB 3 6 29.98 1015 7 11 0.00 0.03
8:53 am 08:53 Cloudy 74 23.3 74 23.3 100 100 SSW 3 6 30.00 1016 10 16 0.00 0.03
9:26 am 09:26 Cloudy 75 23.9 75 23.9 100 100 undefined N/A 30.03 1017 10 16 0.00 0.00
9:33 am 09:33 Cloudy 76 24.4 75 23.9 97 97 VRB 3 6 30.03 1017 10 16 0.00 0.00
9:53 am 09:53 Cloudy 77 25 75 23.9 94 94 SSW 8 13 30.00 1016 10 16 0.00 0.00
10:53 am 10:53 Cloudy 78 25.6 74 23.3 87 87 VRB 3 6 30.00 1016 10 16 0.00 0.00
11:36 am 11:36 Mostly Cloudy 80 26.7 74 23.3 82 82 VRB 7 11 30.00 1016 10 16 0.00 0.00
11:53 am 11:53 Mostly Cloudy 80 26.7 74 23.3 82 82 VRB 5 7 30.01 1016 10 16 0.00 0.00
12:20 pm 12:20 Mostly Cloudy 79 26.1 74 23.3 85 85 VRB 7 11 30.00 1016 10 16 0.00 0.00
12:53 pm 12:53 Mostly Cloudy 80 26.7 74 23.3 82 82 VRB 7 11 30.00 1016 10 16 0.00 0.00
1:53 pm 13:53 Cloudy 82 27.8 74 23.3 77 77 VRB 7 11 29.99 1016 10 16 0.00 0.00
2:53 pm 14:53 Mostly Cloudy 84 28.9 73 22.8 70 70 VRB 3 6 29.96 1015 10 16 0.00 0.00
3:22 pm 15:22 Mostly Cloudy with Rain 79 26.1 75 23.9 88 88 SSW 9 15 30.00 1016 2 3 0.09 2.29
3:25 pm 15:25 Mostly Cloudy with Heavy Rain 76 24.4 75 23.9 97 97 VRB 5 7 30.03 1017 1 1 0.22 5.59
3:33 pm 15:33 Cloudy with Light Rain 74 23.3 74 23.3 100 100 Calm 30.00 1016 1 2 0.24 6.10
3:36 pm 15:36 Cloudy with Light Rain 74 23.3 74 23.3 100 100 Calm 30.00 1016 3 5 0.25 6.35
3:53 pm 15:53 Cloudy with Rain 75 23.9 75 23.9 100 100 S 3 6 29.96 1015 5 8 0.28 7.11
4:53 pm 16:53 Mostly Sunny 79 26.1 75 23.9 88 88 Calm 29.94 1014 10 16 0.01 0.25
5:53 pm 17:53 Mostly Cloudy 80 26.7 77 25 90 90 Calm 29.94 1014 10 16 0.00 0.00
6:53 pm 18:53 Mostly Sunny 80 26.7 78 25.6 94 94 Calm 29.94 1014 10 16 0.00 0.00
7:53 pm 19:53 Sunny 79 26.1 75 23.9 88 88 SSW 3 6 29.93 1014 10 16 0.00 0.00
8:53 pm 20:53 Mostly Clear 77 25 74 23.3 90 90 Calm 29.95 1014 10 16 0.00 0.00
9:53 pm 21:53 Mostly Clear 77 25 73 22.8 88 88 VRB 3 6 29.96 1015 10 16 0.00 0.00
10:53 pm 22:53 Cloudy 76 24.4 74 23.3 94 94 Calm 29.98 1015 10 16 0.00 0.00
11:13 pm 23:13 Cloudy with Nearby Thunderstorms 73 22.8 70 21.1 90 90 VRB 6 9 30.03 1017 10 16 0.00 0.03
11:28 pm 23:28 Cloudy with Light Rain 71 21.7 69 20.6 94 94 VRB 6 9 30.03 1017 10 16 0.01 0.25
11:53 pm 23:53 Cloudy 69 20.6 69 20.6 100 100 S 3 6 30.01 1016 10 16 0.02 0.51

Powered by AerisWeather